Home > Time Zones > World Clock > Weather > Ghana > Accra > Past weeks

Flag for Ghana Weather past 2 weeks in Accra, Ghana

Now
79 °F

Clear.


Feels Like: 81 °F
Forecast: 79 / 88 °F
Wind: 7 mph from West

Location: Accra Airport

Current Time: Dec 21, 2014 at 2:17:22 AM

Latest Report: Dec 21, 2014 at 1:00 AM


Visibility: 10 mi

Pressure: 29.89 "Hg

Humidity: 74%

Dew point: 70 °F

Location of AccraLocation

Historic Weather in Accra — Graph

°F

Accra temperature yesterday

Maximum temperature yesterday: 88 °F (at 1:00 PM)
Minimum temperature yesterday: 79 °F (at 3:00 AM)
Average temperature yesterday: 82 °F

Past Weeks' High & Low Weather Summary

 TemperatureHumidityPressure
High90 °F (Dec 10, 12:00 PM)100% (Dec 16, 5:00 AM)29.95 "Hg (Dec 16, 5:00 AM)
Low77 °F (Dec 6, 3:00 AM)52% (Dec 14, 11:00 AM)29.77 "Hg (Dec 8, 4:00 PM)
Average82 °F81%29.86 "Hg
* Reported Dec 6 1:00 AM — Dec 21 1:00 AM, Accra, Weather by CustomWeather, © 2014

Note: Actual official high and low records may vary slightly from our data, if they occured in-between our weather recording intervals... More about our weather records

Advertising

Accra weather history for previous 24 hours

 ConditionsComfort  
Time TempWeatherWind HumidityBarometerVisibility
1:00 AM
Dec 21
79 °FClear.7 mph74%29.89 "Hg10 mi
12:00 AM79 °FPassing clouds.8 mph74%29.92 "HgN/A
11:00 PM
Dec 20
81 °FPassing clouds.7 mph79%29.92 "HgN/A
10:00 PM82 °FPassing clouds.8 mph84%29.95 "HgN/A
9:00 PM82 °FClear.7 mph84%29.95 "Hg10 mi
8:00 PM82 °FPassing clouds.9 mph84%29.92 "HgN/A
7:00 PM82 °FPassing clouds.12 mph84%29.89 "HgN/A
5:00 PM84 °FPassing clouds.14 mph79%29.83 "HgN/A
3:59 PM84 °FPassing clouds.13 mph79%29.83 "HgN/A
2:00 PM88 °FScattered clouds.12 mph66%29.86 "HgN/A
1:00 PM88 °FScattered clouds.9 mph62%29.86 "HgN/A
10:00 AM84 °FPartly sunny.8 mph79%29.95 "HgN/A
9:00 AM82 °FPartly sunny.10 mph84%29.95 "HgN/A
8:00 AM81 °FPartly sunny.10 mph89%29.95 "Hg5 mi
7:00 AM79 °FPartly sunny.9 mph89%29.92 "Hg5 mi
6:00 AM79 °FOvercast.7 mph89%29.89 "Hg6 mi
5:00 AM79 °FOvercast.6 mph89%29.89 "Hg6 mi
4:00 AM79 °FOvercast.7 mph89%29.89 "Hg6 mi
3:00 AM79 °FOvercast.6 mph89%29.89 "HgN/A
Weather by CustomWeather, © 2014

See weather overviewHow to use our weather pages